H1 CPF  2 ESA 2023  6 16 10 167 01 galileo213
H2  1606903 7213    41861 2023  6 15 23 59 42 2023  6 20 23 59 42   900 1 1  0 0 0  1
H9
10 0 60113  43182.000000  0         -3325.828      20861497.740      21008608.387
10 0 60113  44082.000000  0      -1413341.973      19513339.016      22222530.109
10 0 60113  44982.000000  0      -2986616.400      18202467.833      23160289.928
10 0 60113  45882.000000  0      -4703421.926      16959733.824      23810258.668
10 0 60113  46782.000000  0      -6539039.976      15812505.364      24164380.664
10 0 60113  47682.000000  0      -8464473.223      14783838.280      24218272.336
10 0 60113  48582.000000  0     -10447292.957      13891782.285      23971275.558
10 0 60113  49482.000000  0     -12452594.851      13148846.652      23426465.212
10 0 60113  50382.000000  0     -14444033.440      12561641.718      22590610.872
10 0 60113  51282.000000  0     -16384903.167      12130707.269      21474093.103
10 0 60113  52182.000000  0     -18239232.430      11850533.124      20090775.343
10 0 60113  53082.000000  0     -19972856.615      11709771.193      18457832.913
10 0 60113  53982.000000  0     -21554436.742      11691632.371      16595541.145
10 0 60113  54882.000000  0     -22956392.032      11774455.841      14527025.170
10 0 60113  55782.000000  0     -24155717.315      11932433.003      12277974.326
10 0 60113  56682.000000  0     -25134659.789      12136463.383       9876324.614
10 0 60113  57582.000000  0     -25881233.981      12355115.738       7351913.045
10 0 60113  58482.000000  0     -26389558.773      12555664.266       4736108.070
10 0 60113  59382.000000  0     -26660005.933      12705167.421       2061420.624
10 0 60113  60282.000000  0     -26699155.428      12771555.492       -638899.416
10 0 60113  61182.000000  0     -26519558.891      12724692.748      -3331276.358
10 0 60113  62082.000000  0     -26139318.592      12537380.773      -5982226.252
10 0 60113  62982.000000  0     -25581495.065      12186271.353      -8558773.643
10 0 60113  63882.000000  0     -24873361.949      11652660.159     -11028862.294
10 0 60113  64782.000000  0     -24045531.397      10923136.151     -13361754.695
10 0 60113  65682.000000  0     -23130977.466       9990066.142     -15528415.337
10 0 60113  66582.000000  0     -22163988.161       8851899.161     -17501872.913
10 0 60113  67482.000000  0     -21179079.009       7513280.863     -19257556.895
10 0 60113  68382.000000  0     -20209902.285       5984974.229     -20773604.247
10 0 60113  69282.000000  0     -19288186.115       4283588.864     -22031132.437
10 0 60113  70182.000000  0     -18442736.793       2431127.197     -23014475.326
10 0 60113  71082.000000  0     -17698535.602        454361.649     -23711378.980
10 0 60113  71982.000000  0     -17075958.509      -1615937.864     -24113154.965
10 0 60113  72882.000000  0     -16590143.216      -3745902.058     -24214789.208
10 0 60113  73782.000000  0     -16250523.437      -5899558.024     -24015005.051
10 0 60113  74682.000000  0     -16060545.019      -8039891.526     -23516279.704
10 0 60113  75582.000000  0     -16017572.809     -10129942.708     -22724813.868
10 0 60113  76482.000000  0     -16112991.195     -12133900.974     -21650454.871
10 0 60113  77382.000000  0     -16332495.155     -14018164.853     -20306574.246
10 0 60113  78282.000000  0     -16656562.657     -15752333.713     -18709901.242
10 0 60113  79182.000000  0     -17061093.558     -17310100.331     -16880314.316
10 0 60113  80082.000000  0     -17518194.907     -18670016.416     -14840593.176
10 0 60113  80982.000000  0     -17997087.921     -19816107.151     -12616134.463
10 0 60113  81882.000000  0     -18465108.097     -20738315.577     -10234634.629
10 0 60113  82782.000000  0     -18888766.951     -21432762.961      -7725744.000
10 0 60113  83682.000000  0     -19234841.939     -21901817.097      -5120696.382
10 0 60113  84582.000000  0     -19471460.231     -22153966.509      -2451918.901
10 0 60113  85482.000000  0     -19569142.187     -22203504.667        247372.952
10 0 60113  86382.000000  0     -19501771.677     -22070034.268       2943589.953
10 0 60114    882.000000  0     -19247462.705     -21777807.329       5603188.167
10 0 60114   1782.000000  0     -18789295.061     -21354921.971       8193087.054
10 0 60114   2682.000000  0     -18115895.898     -20832401.261      10681081.378
10 0 60114   3582.000000  0     -17221848.968     -20243183.193      13036241.728
10 0 60114   4482.000000  0     -16107918.712     -19621053.589      15229298.664
10 0 60114   5382.000000  0     -14781082.198     -18999555.500      17233005.700
10 0 60114   6282.000000  0     -13254367.948     -18410909.348      19022476.680
10 0 60114   7182.000000  0     -11546506.733     -17884977.657      20575493.420
10 0 60114   8082.000000  0      -9681405.293     -17448306.787      21872779.912
10 0 60114   8982.000000  0      -7687459.420     -17123275.621      22898239.819
10 0 60114   9882.000000  0      -5596727.870     -16927377.769      23639154.445
10 0 60114  10782.000000  0      -3443992.824     -16872659.664      24086338.880
10 0 60114  11682.000000  0      -1265736.163     -16965332.020      24234254.494
10 0 60114  12582.000000  0        900936.626     -17205566.745      24081076.519
10 0 60114  13482.000000  0       3019391.479     -17587485.575      23628715.937
10 0 60114  14382.000000  0       5054545.710     -18099340.762      22882795.471
10 0 60114  15282.000000  0       6973899.388     -18723882.177      21852579.960
10 0 60114  16182.000000  0       8748486.103     -19438899.362      20550861.972
10 0 60114  17082.000000  0      10353713.622     -20217921.655      18993803.992
10 0 60114  17982.000000  0      11770068.317     -21031054.564      17200739.065
10 0 60114  18882.000000  0      12983661.482     -21845926.307      15193932.232
10 0 60114  19782.000000  0      13986600.551     -22628714.991      12998305.621
10 0 60114  20682.000000  0      14777173.659     -23345224.348      10641130.469
10 0 60114  21582.000000  0      15359841.821     -23961974.390       8151689.786
10 0 60114  22482.000000  0      15745038.961     -24447272.839       5560915.753
10 0 60114  23382.000000  0      15948786.072     -24772233.758       2901006.299
10 0 60114  24282.000000  0      15992131.571     -24911711.394        205025.555
10 0 60114  25182.000000  0      15900435.400     -24845119.886      -2493506.848
10 0 60114  26082.000000  0      15702519.305     -24557113.021      -5161032.532
10 0 60114  26982.000000  0      15429709.994     -24038102.588      -7764371.959
10 0 60114  27882.000000  0      15114805.194     -23284598.924     -10271137.611
10 0 60114  28782.000000  0      14790995.140     -22299362.826     -12650137.562
10 0 60114  29682.000000  0      14490773.382     -21091363.895     -14871764.356
10 0 60114  30582.000000  0      14244871.205     -19675546.481     -16908364.296
10 0 60114  31482.000000  0      14081249.186     -18072410.426     -18734582.488
10 0 60114  32382.000000  0      14024177.645     -16307419.604     -20327679.305
10 0 60114  33282.000000  0      14093434.953     -14410256.693     -21667814.290
10 0 60114  34182.000000  0      14303648.962     -12413947.403     -22738293.958
10 0 60114  35082.000000  0      14663802.337     -10353881.514     -23525780.382
10 0 60114  35982.000000  0      15176917.397      -8266761.283     -24020457.973
10 0 60114  36882.000000  0      15839930.482      -6189510.056     -24216156.351
10 0 60114  37782.000000  0      16643759.864      -4158175.203     -24110427.804
10 0 60114  38682.000000  0      17573565.189      -2206859.615     -23704578.314
10 0 60114  39582.000000  0      18609190.394       -366715.157     -23003651.783
10 0 60114  40482.000000  0      19725776.283       1334970.485     -22016367.606
10 0 60114  41382.000000  0      20894523.634       2875565.062     -20755012.345
10 0 60114  42282.000000  0      22083582.934       4237736.396     -19235286.817
10 0 60114  43182.000000  0      23259042.877       5409930.319     -17476110.475
10 0 60114  44082.000000  0      24385986.620       6386667.003     -15499385.484
10 0 60114  44982.000000  0      25429582.658       7168646.532     -13329723.432
10 0 60114  45882.000000  0      26356176.057       7762660.500     -10994138.076
10 0 60114  46782.000000  0      27134345.761       8181312.572      -8521707.987
10 0 60114  47682.000000  0      27735894.752       8442556.913      -5943213.333
10 0 60114  48582.000000  0      28136741.941       8569069.148      -3290751.409
10 0 60114  49482.000000  0      28317687.752       8587469.783       -597335.774
10 0 60114  50382.000000  0      28265029.367       8527424.633       2103515.901
10 0 60114  51282.000000  0      27971006.316       8420650.720       4778200.049
10 0 60114  52182.000000  0      27434062.451       8299858.988       7393446.169
10 0 60114  53082.000000  0      26658916.155       8197667.212       9916731.246
10 0 60114  53982.000000  0      25656436.628       8145517.346      12316684.397
10 0 60114  54882.000000  0      24443330.233       8172631.373      14563476.678
10 0 60114  55782.000000  0      23041646.811       8305038.508      16629191.207
10 0 60114  56682.000000  0      21478121.506       8564704.258      18488169.022
10 0 60114  57582.000000  0      19783372.778       8968788.676      20117326.461
10 0 60114  58482.000000  0      17990981.738       9529057.006      21496440.216
10 0 60114  59382.000000  0      16136481.601      10251461.158      22608396.636
10 0 60114  60282.000000  0      14256288.820      11135905.067      23439402.340
10 0 60114  61182.000000  0      12386609.220      12176201.261      23979153.656
10 0 60114  62082.000000  0      10562353.200      13360219.978      24220962.926
10 0 60114  62982.000000  0       8816093.729      14670226.186      24161840.230
10 0 60114  63882.000000  0       7177099.520      16083394.035      23802529.598
99